When you browse on this site, cookies collect data to enhance your experience and personalize the content and advertising you see.
Visit our Privacy Policy to learn more. By continuing to use the site, you agree to this use of cookies and data.
  • In Deutschland
  • Länderverzeichnis
  • Für 7 Tage
  • Wassertemperatur
  • Satellitenkarten
  • Wetterkarte
  • Widgets
  • user-avatar
    Anmelden

    Stündliche Wetter Gorzen

    Heute, 21 Februar, Donnerstag

    Zeit Temperatur Niederschläge Wind Luftdruck Luftfeuchtigkeit
    00:00 +1°C° 0 mm 3 m/S 755 mmHg 91%
    01:00 +1°C° 0 mm 3 m/S 755 mmHg 95%
    02:00 +1°C° 0 mm 3 m/S 755 mmHg 95%
    03:00 +1°C° 0 mm 3 m/S 754 mmHg 95%
    04:00 +1°C° 0 mm 3 m/S 754 mmHg 96%
    05:00 +1°C° 0.2 mm 3 m/S 754 mmHg 96%
    06:00 +2°C° 0.2 mm 3 m/S 754 mmHg 96%
    07:00 +2°C° 0.2 mm 3 m/S 754 mmHg 97%
    08:00 +2°C° 0.2 mm 3 m/S 754 mmHg 96%
    09:00 +3°C° 0.2 mm 4 m/S 754 mmHg 95%
    10:00 +3°C° 0.2 mm 4 m/S 754 mmHg 94%
    11:00 +3°C° 1 mm 4 m/S 754 mmHg 94%
    12:00 +3°C° 1 mm 4 m/S 754 mmHg 93%
    13:00 +4°C° 1 mm 4 m/S 753 mmHg 93%
    14:00 +4°C° 0.8 mm 4 m/S 753 mmHg 93%
    15:00 +4°C° 0.8 mm 4 m/S 753 mmHg 93%
    16:00 +3°C° 0.8 mm 5 m/S 753 mmHg 93%
    17:00 +4°C° 0.9 mm 4 m/S 753 mmHg 94%
    18:00 +4°C° 0.9 mm 4 m/S 752 mmHg 95%
    19:00 +4°C° 0.9 mm 3 m/S 752 mmHg 96%
    20:00 +3°C° 0.9 mm 3 m/S 752 mmHg 96%
    21:00 +3°C° 0.9 mm 4 m/S 753 mmHg 96%
    22:00 +3°C° 0.9 mm 4 m/S 753 mmHg 96%
    23:00 +1°C° 0.3 mm 5 m/S 754 mmHg 92%

    Morgen, 22 Februar, Freitag

    Zeit Temperatur Niederschläge Wind Luftdruck Luftfeuchtigkeit
    00:00 -2°C° 0.3 mm 6 m/S 754 mmHg 87%
    01:00 -4°C° 0.3 mm 7 m/S 755 mmHg 83%
    02:00 -4°C° 0 mm 7 m/S 756 mmHg 77%
    03:00 -4°C° 0 mm 6 m/S 757 mmHg 71%
    04:00 -5°C° 0 mm 6 m/S 759 mmHg 64%
    05:00 -5°C° 0 mm 6 m/S 760 mmHg 63%
    06:00 -6°C° 0 mm 6 m/S 761 mmHg 62%
    07:00 -6°C° 0 mm 6 m/S 763 mmHg 60%
    08:00 -6°C° 0 mm 6 m/S 764 mmHg 55%
    09:00 -6°C° 0 mm 6 m/S 765 mmHg 49%
    10:00 -5°C° 0 mm 5 m/S 766 mmHg 43%
    11:00 -5°C° 0 mm 5 m/S 766 mmHg 42%
    12:00 -4°C° 0 mm 5 m/S 767 mmHg 40%
    13:00 -3°C° 0 mm 4 m/S 767 mmHg 38%
    14:00 -3°C° 0 mm 4 m/S 768 mmHg 40%
    15:00 -3°C° 0 mm 4 m/S 768 mmHg 41%
    16:00 -3°C° 0 mm 4 m/S 768 mmHg 42%
    17:00 -4°C° 0 mm 4 m/S 769 mmHg 44%
    18:00 -4°C° 0 mm 4 m/S 769 mmHg 47%
    19:00 -5°C° 0 mm 4 m/S 770 mmHg 49%
    20:00 -5°C° 0 mm 3 m/S 770 mmHg 48%
    21:00 -5°C° 0 mm 3 m/S 770 mmHg 46%
    22:00 -5°C° 0 mm 3 m/S 771 mmHg 45%
    23:00 -4°C° 0 mm 2 m/S 771 mmHg 45%

    übermorgen, 23 Februar, Samstag

    Zeit Temperatur Niederschläge Wind Luftdruck Luftfeuchtigkeit
    00:00 -4°C° 0 mm 2 m/S 771 mmHg 45%
    01:00 -4°C° 0 mm 2 m/S 771 mmHg 46%
    02:00 -4°C° 0 mm 2 m/S 771 mmHg 47%
    03:00 -2°C° 0 mm 1 m/S 771 mmHg 48%
    04:00 -3°C° 0 mm 1 m/S 771 mmHg 49%
    05:00 -3°C° 0 mm 1 m/S 771 mmHg 49%
    06:00 -3°C° 0 mm 1 m/S 771 mmHg 50%
    07:00 -3°C° 0 mm 1 m/S 771 mmHg 50%
    08:00 -2°C° 0 mm 1 m/S 772 mmHg 45%
    09:00 -1°C° 0 mm 1 m/S 772 mmHg 40%
    10:00 -1°C° 0 mm 1 m/S 772 mmHg 36%
    11:00 0°C° 0 mm 1 m/S 772 mmHg 33%
    12:00 0°C° 0 mm 1 m/S 771 mmHg 31%
    13:00 +1°C° 0 mm 1 m/S 771 mmHg 28%
    14:00 +1°C° 0 mm 1 m/S 771 mmHg 29%
    15:00 +1°C° 0 mm 1 m/S 771 mmHg 31%
    16:00 -1°C° 0 mm 2 m/S 770 mmHg 32%
    17:00 -1°C° 0 mm 2 m/S 770 mmHg 35%
    18:00 -2°C° 0 mm 2 m/S 770 mmHg 37%
    19:00 -2°C° 0 mm 2 m/S 769 mmHg 39%
    20:00 -2°C° 0 mm 2 m/S 769 mmHg 40%
    21:00 -2°C° 0 mm 2 m/S 769 mmHg 41%
    22:00 -2°C° 0 mm 2 m/S 769 mmHg 42%
    23:00 -2°C° 0 mm 2 m/S 769 mmHg 43%

    24 Februar, Sonntag

    Zeit Temperatur Niederschläge Wind Luftdruck Luftfeuchtigkeit
    00:00 -2°C° 0 mm 3 m/S 768 mmHg 44%
    01:00 -2°C° 0 mm 3 m/S 768 mmHg 46%
    02:00 -2°C° 0 mm 3 m/S 768 mmHg 45%
    03:00 -2°C° 0 mm 3 m/S 767 mmHg 45%
    04:00 -2°C° 0 mm 3 m/S 767 mmHg 45%
    05:00 -2°C° 0 mm 3 m/S 767 mmHg 46%
    06:00 -2°C° 0 mm 3 m/S 766 mmHg 47%
    07:00 -2°C° 0 mm 3 m/S 766 mmHg 48%
    08:00 -1°C° 0 mm 3 m/S 766 mmHg 48%
    09:00 -1°C° 0 mm 3 m/S 766 mmHg 48%
    10:00 0°C° 0 mm 3 m/S 766 mmHg 47%
    11:00 +1°C° 0 mm 3 m/S 766 mmHg 51%
    12:00 +2°C° 0 mm 2 m/S 766 mmHg 54%
    13:00 +3°C° 0 mm 2 m/S 765 mmHg 58%
    14:00 +3°C° 0 mm 2 m/S 765 mmHg 63%
    15:00 +3°C° 0 mm 2 m/S 765 mmHg 69%
    16:00 +3°C° 0 mm 2 m/S 765 mmHg 75%
    17:00 +2°C° 0 mm 2 m/S 765 mmHg 79%
    18:00 +2°C° 0 mm 2 m/S 765 mmHg 84%
    19:00 +1°C° 0 mm 2 m/S 765 mmHg 89%
    20:00 +1°C° 0 mm 2 m/S 765 mmHg 90%
    21:00 +1°C° 0 mm 2 m/S 765 mmHg 91%
    22:00 +1°C° 0 mm 2 m/S 765 mmHg 93%
    23:00 +1°C° 0 mm 2 m/S 765 mmHg 93%

    25 Februar, Montag

    Zeit Temperatur Niederschläge Wind Luftdruck Luftfeuchtigkeit
    00:00 +1°C° 0 mm 2 m/S 765 mmHg 93%
    01:00 -1°C° 0 mm 2 m/S 764 mmHg 93%
    02:00 -1°C° 0 mm 2 m/S 765 mmHg 93%
    03:00 -1°C° 0 mm 2 m/S 765 mmHg 94%
    04:00 -1°C° 0 mm 2 m/S 765 mmHg 94%
    05:00 -1°C° 0 mm 2 m/S 765 mmHg 95%
    06:00 -1°C° 0 mm 2 m/S 765 mmHg 95%
    07:00 -1°C° 0 mm 3 m/S 765 mmHg 96%
    08:00 0°C° 0 mm 3 m/S 766 mmHg 92%
    09:00 +1°C° 0 mm 3 m/S 766 mmHg 89%
    10:00 +2°C° 0 mm 3 m/S 767 mmHg 85%
    11:00 +3°C° 0 mm 3 m/S 767 mmHg 79%
    12:00 +5°C° 0 mm 2 m/S 767 mmHg 74%
    13:00 +6°C° 0 mm 2 m/S 767 mmHg 68%
    14:00 +6°C° 0 mm 2 m/S 766 mmHg 71%
    15:00 +5°C° 0 mm 2 m/S 766 mmHg 73%
    16:00 +4°C° 0 mm 2 m/S 766 mmHg 76%
    17:00 +4°C° 0 mm 2 m/S 766 mmHg 79%
    18:00 +3°C° 0 mm 2 m/S 766 mmHg 81%
    19:00 +2°C° 0 mm 2 m/S 766 mmHg 84%
    20:00 +2°C° 0 mm 1 m/S 766 mmHg 84%
    21:00 +2°C° 0 mm 1 m/S 766 mmHg 84%
    22:00 +2°C° 0 mm 1 m/S 766 mmHg 84%
    23:00 +2°C° 0 mm 1 m/S 765 mmHg 84%

    26 Februar, Dienstag

    Zeit Temperatur Niederschläge Wind Luftdruck Luftfeuchtigkeit
    00:00 +1°C° 0 mm 2 m/S 765 mmHg 85%
    01:00 +1°C° 0 mm 2 m/S 764 mmHg 86%
    02:00 0°C° 0 mm 3 m/S 764 mmHg 86%
    03:00 0°C° 0 mm 3 m/S 763 mmHg 87%
    04:00 0°C° 0 mm 3 m/S 762 mmHg 88%
    05:00 -1°C° 0 mm 4 m/S 762 mmHg 90%
    06:00 -1°C° 0 mm 4 m/S 761 mmHg 92%
    07:00 -1°C° 0 mm 4 m/S 761 mmHg 93%
    08:00 +1°C° 0 mm 4 m/S 760 mmHg 88%
    09:00 +2°C° 0 mm 5 m/S 760 mmHg 82%
    10:00 +3°C° 0 mm 5 m/S 759 mmHg 76%
    11:00 +5°C° 0 mm 5 m/S 759 mmHg 73%
    12:00 +5°C° 0 mm 6 m/S 759 mmHg 69%
    13:00 +7°C° 0 mm 6 m/S 758 mmHg 66%
    14:00 +7°C° 0 mm 5 m/S 758 mmHg 68%
    15:00 +7°C° 0 mm 5 m/S 758 mmHg 70%
    16:00 +6°C° 0 mm 5 m/S 758 mmHg 72%
    17:00 +5°C° 0 mm 4 m/S 758 mmHg 77%
    18:00 +4°C° 0 mm 4 m/S 758 mmHg 82%
    19:00 +3°C° 0 mm 4 m/S 759 mmHg 87%
    20:00 +1°C° 0 mm 4 m/S 759 mmHg 89%
    21:00 +1°C° 0 mm 4 m/S 759 mmHg 91%
    22:00 0°C° 0 mm 4 m/S 759 mmHg 92%
    23:00 0°C° 0 mm 4 m/S 759 mmHg 93%
    Mehr zeigen